Terminal Aerodrome Forecast
Issued by NWS

Home | Current Version | Previous Version | Text Only | Print | Product List | Glossary On
Versions: 1 2 3 4 5 6 7 8 9 10 11 12 13 14 15 16
000
FTUS45 KPSR 252300 RRA
TAFBLH
TAF
KBLH 252341Z 2600/2624 34015KT P6SM SKC
     FM260400 33008KT P6SM SKC
     FM261900 36011KT P6SM SKC=

USA.gov is the U.S. government's official web portal to all federal, state and local government web resources and services.